Weather History for Leeuwarden, Netherlands

Change the Weather History Date:

Sunday, December 8, 2013

  Actual Average Record
Temperature  
Mean Temperature 44 °F -  
Max Temperature 48 °F 40 °F 55 °F (2000)
Min Temperature 40 °F 32 °F 13 °F (2012)
Degree Days  
Heating Degree Days 21    
Moisture  
Dew Point 43 °F    
Average Humidity 90    
Maximum Humidity 100    
Minimum Humidity 86    
Precipitation  
Precipitation 0.03 in - - ()
Sea Level Pressure  
Sea Level Pressure 30.10 in    
Wind  
Wind Speed 11 mph ()    
Max Wind Speed 18 mph    
Max Gust Speed 28 mph    
Visibility 6.3 miles    
Events Rain    
Averages and records for this station are not official NWS values.
T = Trace of Precipitation, MM = Missing Value Source: Averaged Metar Reports

Daily Weather History Graph

Daily Weather History Graph

Search for Another Location

Airport:

Trip Planner

Search our weather history database for the weather conditions in past years. The results will help you decide how hot, cold, wet, or windy it might be!

Date:

Astronomy

Dec. 08, 2013 Rise Set
Actual Time 8:38 AM CET 4:19 PM CET
Civil Twilight 7:56 AM CET 5:01 PM CET
Nautical Twilight 7:11 AM CET 5:46 PM CET
Astronomical Twilight 6:29 AM CET 6:28 PM CET
Moon 12:11 PM CET (12/8) 11:33 PM CET (12/8)
Length of Visible Light 9h 05m
Length of Day
7h 41m
Waxing Crescent, 37% of the Moon is Illuminated
Dec 8
Waxing Crescent
Dec 9
First Quarter
Dec 17
Full
Dec 25
Last Quarter
Jan 1
New

Hourly Weather History & Observations

Time (CET) Temp. Windchill Dew Point Humidity Pressure Visibility Wind Dir Wind Speed Gust Speed Precip Events Conditions
12:06 AM 46.4 °F 41.1 °F 42.8 °F 87% 30.12 in 6.2 mi West 11.5 mph - N/A   Overcast
12:25 AM 46.4 °F 41.5 °F 42.8 °F 87% 30.12 in 6.2 mi WSW 10.4 mph - N/A   Overcast
12:32 AM 44.6 °F 39.2 °F 41.0 °F 87% 30.12 in 6.2 mi WSW 10.4 mph - N/A   Mostly Cloudy
12:55 AM 44.6 °F 39.7 °F 42.8 °F 93% 30.12 in 6.2 mi WSW 9.2 mph - N/A   Overcast
1:00 AM 45 °F - 42 °F 86% 30.14 in 11 mi WSW 11.2 mph - -   Partly Cloudy
1:25 AM 44.6 °F 40.2 °F 42.8 °F 93% 30.12 in 6.2 mi WSW 8.1 mph - N/A   Overcast
1:55 AM 44.6 °F 39.7 °F 41.0 °F 87% 30.12 in 6.2 mi WSW 9.2 mph - N/A   Overcast
2:02 AM 44.6 °F 39.7 °F 41.0 °F 87% 30.12 in 6.2 mi WSW 9.2 mph - N/A   Overcast
2:06 AM 44.6 °F 40.2 °F 41.0 °F 87% 30.12 in 6.2 mi WSW 8.1 mph - N/A   Overcast
2:20 AM 44.6 °F 40.2 °F 41.0 °F 87% 30.12 in 6.2 mi WSW 8.1 mph - N/A   Overcast
2:25 AM 44.6 °F 40.2 °F 41.0 °F 87% 30.12 in 6.2 mi WSW 8.1 mph - N/A   Overcast
2:29 AM 44.6 °F 39.7 °F 41.0 °F 87% 30.12 in 6.2 mi WSW 9.2 mph - N/A   Overcast
2:35 AM 44.6 °F 39.7 °F 41.0 °F 87% 30.12 in 6.2 mi WSW 9.2 mph - N/A   Overcast
2:39 AM 44.6 °F 39.7 °F 41.0 °F 87% 30.12 in 6.2 mi WSW 9.2 mph - N/A   Overcast
2:45 AM 42.8 °F 37.5 °F 41.0 °F 93% 30.12 in 6.2 mi WSW 9.2 mph - N/A   Overcast
2:46 AM 44.6 °F 40.2 °F 41.0 °F 87% 30.12 in 6.2 mi WSW 8.1 mph - N/A   Mostly Cloudy
2:55 AM 42.8 °F 37.5 °F 41.0 °F 93% 30.12 in 6.2 mi WSW 9.2 mph - N/A   Scattered Clouds
3:25 AM 42.8 °F 37.5 °F 41.0 °F 93% 30.12 in 6.2 mi WSW 9.2 mph - N/A   Unknown
3:55 AM 42.8 °F 37.0 °F 41.0 °F 93% 30.12 in 6.2 mi WSW 10.4 mph - N/A   Unknown
4:25 AM 41.0 °F 35.8 °F 39.2 °F 93% 30.12 in 6.2 mi SW 8.1 mph - N/A   Unknown
4:55 AM 41.0 °F 35.8 °F 41.0 °F 100% 30.12 in 6.2 mi SW 8.1 mph - N/A   Scattered Clouds
5:05 AM 42.8 °F 38.0 °F 41.0 °F 93% 30.12 in 6.2 mi SW 8.1 mph - N/A   Scattered Clouds
5:08 AM 42.8 °F 38.0 °F 41.0 °F 93% 30.12 in 6.2 mi SW 8.1 mph - N/A   Mostly Cloudy
5:25 AM 42.8 °F 38.0 °F 41.0 °F 93% 30.12 in 6.2 mi WSW 8.1 mph - N/A   Overcast
5:55 AM 42.8 °F 37.0 °F 41.0 °F 93% 30.12 in 6.2 mi SW 10.4 mph - N/A   Mostly Cloudy
6:10 AM 44.6 °F 39.2 °F 42.8 °F 93% 30.12 in 6.2 mi SW 10.4 mph - N/A   Overcast
6:13 AM 44.6 °F 39.2 °F 42.8 °F 93% 30.12 in 6.2 mi WSW 10.4 mph - N/A   Overcast
6:25 AM 44.6 °F 39.2 °F 42.8 °F 93% 30.09 in 6.2 mi WSW 10.4 mph - N/A   Overcast
6:28 AM 44.6 °F 39.2 °F 42.8 °F 93% 30.09 in 6.2 mi WSW 10.4 mph - N/A   Overcast
6:31 AM 44.6 °F 38.8 °F 42.8 °F 93% 30.09 in 6.2 mi WSW 11.5 mph - N/A   Overcast
6:55 AM 44.6 °F 39.2 °F 42.8 °F 93% 30.09 in 6.2 mi SW 10.4 mph - N/A   Overcast
7:00 AM 44 °F - 42 °F 92% 30.12 in 7 mi SW 8.9 mph - -   Partly Cloudy
7:25 AM 44.6 °F 39.2 °F 42.8 °F 93% 30.09 in 6.2 mi SW 10.4 mph - N/A   Overcast
7:55 AM 44.6 °F 39.2 °F 42.8 °F 93% 30.09 in 6.2 mi SW 10.4 mph - N/A   Mostly Cloudy
8:07 AM 44.6 °F 38.8 °F 42.8 °F 93% 30.09 in 6.2 mi SW 11.5 mph - N/A   Mostly Cloudy
8:09 AM 44.6 °F 39.2 °F 42.8 °F 93% 30.09 in 6.2 mi SW 10.4 mph - N/A   Overcast
8:13 AM 44.6 °F 39.2 °F 42.8 °F 93% 30.09 in 6.2 mi SW 10.4 mph - N/A   Overcast
8:25 AM 44.6 °F 38.8 °F 42.8 °F 93% 30.09 in 6.2 mi SW 11.5 mph - N/A   Overcast
8:38 AM 44.6 °F 38.4 °F 42.8 °F 93% 30.09 in 6.2 mi SW 12.7 mph - N/A   Overcast
8:46 AM 44.6 °F 38.4 °F 42.8 °F 93% 30.09 in 6.2 mi WSW 12.7 mph - N/A   Mostly Cloudy
8:47 AM 44.6 °F 38.4 °F 42.8 °F 93% 30.12 in 6.2 mi WSW 12.7 mph - N/A   Mostly Cloudy
8:55 AM 44.6 °F 38.4 °F 42.8 °F 93% 30.12 in 6.2 mi WSW 12.7 mph - N/A   Mostly Cloudy
9:05 AM 44.6 °F 38.4 °F 42.8 °F 93% 30.12 in 6.2 mi WSW 12.7 mph - N/A   Overcast
9:25 AM 44.6 °F 38.1 °F 42.8 °F 93% 30.12 in 6.2 mi WSW 13.8 mph - N/A   Overcast
9:55 AM 44.6 °F 37.8 °F 42.8 °F 93% 30.12 in 6.2 mi WSW 15.0 mph - N/A   Scattered Clouds
9:56 AM 44.6 °F 37.8 °F 42.8 °F 93% 30.12 in 6.2 mi WSW 15.0 mph - N/A   Mostly Cloudy
10:17 AM 46.4 °F 40.1 °F 42.8 °F 87% 30.12 in 6.2 mi WSW 15.0 mph - N/A   Mostly Cloudy
10:21 AM 46.4 °F 40.4 °F 42.8 °F 87% 30.12 in 6.2 mi WSW 13.8 mph - N/A   Mostly Cloudy
10:25 AM 46.4 °F 40.4 °F 42.8 °F 87% 30.12 in 6.2 mi WSW 13.8 mph - N/A   Mostly Cloudy
10:45 AM 46.4 °F 40.1 °F 42.8 °F 87% 30.12 in 6.2 mi WSW 15.0 mph - N/A   Scattered Clouds
10:55 AM 46.4 °F 39.8 °F 42.8 °F 87% 30.12 in 6.2 mi WSW 16.1 mph - N/A   Overcast
11:25 AM 46.4 °F 39.8 °F 44.6 °F 93% 30.12 in 6.2 mi WSW 16.1 mph - N/A   Overcast
11:27 AM 46.4 °F 39.8 °F 44.6 °F 93% 30.12 in 6.2 mi WSW 16.1 mph - N/A   Overcast
11:33 AM 46.4 °F 39.8 °F 44.6 °F 93% 30.12 in 6.2 mi WSW 16.1 mph - N/A   Mostly Cloudy
11:55 AM 46.4 °F 40.1 °F 44.6 °F 93% 30.09 in 6.2 mi WSW 15.0 mph - N/A   Mostly Cloudy
11:56 AM 46.4 °F 39.8 °F 44.6 °F 93% 30.09 in 6.2 mi WSW 16.1 mph - N/A   Overcast
12:06 PM 46.4 °F 39.8 °F 44.6 °F 93% 30.09 in 6.2 mi WSW 16.1 mph - N/A   Mostly Cloudy
12:07 PM 46.4 °F 39.8 °F 44.6 °F 93% 30.09 in 6.2 mi WSW 16.1 mph - N/A   Mostly Cloudy
12:25 PM 46.4 °F 39.8 °F 44.6 °F 93% 30.09 in 6.2 mi WSW 16.1 mph 27.6 mph N/A   Mostly Cloudy
12:55 PM 46.4 °F 39.8 °F 44.6 °F 93% 30.09 in 6.2 mi WSW 16.1 mph - N/A   Overcast
1:00 PM 47 °F - 44 °F 86% 30.11 in 12 mi WSW 17.9 mph - -   Partly Cloudy
1:15 PM 48.2 °F - 44.6 °F 87% 30.09 in 6.2 mi WSW 18.4 mph - N/A   Overcast
1:16 PM 48.2 °F - 44.6 °F 87% 30.09 in 6.2 mi WSW 18.4 mph - N/A   Overcast
1:25 PM 46.4 °F 39.2 °F 44.6 °F 93% 30.09 in 6.2 mi WSW 18.4 mph - N/A   Mostly Cloudy
1:55 PM 46.4 °F 39.5 °F 44.6 °F 93% 30.06 in 6.2 mi WSW 17.3 mph - N/A   Overcast
2:25 PM 46.4 °F 39.8 °F 44.6 °F 93% 30.06 in 6.2 mi WSW 16.1 mph - N/A   Scattered Clouds
2:55 PM 46.4 °F 39.5 °F 42.8 °F 87% 30.06 in 6.2 mi WSW 17.3 mph - N/A   Overcast
3:25 PM 46.4 °F 39.2 °F 42.8 °F 87% 30.06 in 6.2 mi WSW 18.4 mph - N/A   Overcast
3:55 PM 46.4 °F 39.8 °F 44.6 °F 93% 30.06 in 6.2 mi WSW 16.1 mph 27.6 mph N/A   Mostly Cloudy
3:59 PM 46.4 °F 39.8 °F 44.6 °F 93% 30.06 in 6.2 mi WSW 16.1 mph 27.6 mph N/A   Overcast
4:06 PM 46.4 °F 39.8 °F 44.6 °F 93% 30.06 in 6.2 mi WSW 16.1 mph - N/A   Overcast
4:25 PM 46.4 °F 39.8 °F 44.6 °F 93% 30.06 in 6.2 mi WSW 16.1 mph - N/A   Overcast
4:55 PM 46.4 °F 39.5 °F 44.6 °F 93% 30.06 in 6.2 mi WSW 17.3 mph - N/A   Mostly Cloudy
5:25 PM 46.4 °F 39.5 °F 44.6 °F 93% 30.06 in 6.2 mi WSW 17.3 mph - N/A   Overcast
5:29 PM 46.4 °F 39.5 °F 44.6 °F 93% 30.06 in 6.2 mi WSW 17.3 mph - N/A   Overcast
5:42 PM 46.4 °F 39.5 °F 44.6 °F 93% 30.06 in 6.2 mi WSW 17.3 mph - N/A   Mostly Cloudy
5:55 PM 48.2 °F - 44.6 °F 87% 30.06 in 6.2 mi WSW 16.1 mph - N/A   Mostly Cloudy
6:02 PM 48.2 °F - 44.6 °F 87% 30.06 in 6.2 mi WSW 16.1 mph - N/A   Overcast
6:25 PM 46.4 °F 39.8 °F 42.8 °F 87% 30.06 in 6.2 mi WSW 16.1 mph - N/A   Mostly Cloudy
6:55 PM 46.4 °F 39.8 °F 42.8 °F 87% 30.06 in 6.2 mi WSW 16.1 mph - N/A   Overcast
7:00 PM 46 °F - 43 °F 86% 30.09 in 11 mi WSW 15.7 mph - -   Partly Cloudy
7:03 PM 46.4 °F 40.1 °F 42.8 °F 87% 30.06 in 6.2 mi WSW 15.0 mph - N/A   Mostly Cloudy
7:11 PM 46.4 °F 40.1 °F 42.8 °F 87% 30.06 in 6.2 mi WSW 15.0 mph 26.5 mph N/A   Mostly Cloudy
7:25 PM 46.4 °F 39.8 °F 42.8 °F 87% 30.06 in 6.2 mi WSW 16.1 mph - N/A   Partly Cloudy
7:55 PM 46.4 °F 39.8 °F 42.8 °F 87% 30.06 in 6.2 mi WSW 16.1 mph - N/A   Overcast
8:25 PM 46.4 °F 39.8 °F 42.8 °F 87% 30.09 in 6.2 mi WSW 16.1 mph - N/A   Mostly Cloudy
8:55 PM 48.2 °F - 44.6 °F 87% 30.09 in 6.2 mi WSW 17.3 mph - N/A   Mostly Cloudy
9:25 PM 46.4 °F 39.5 °F 44.6 °F 93% 30.09 in 6.2 mi WSW 17.3 mph - N/A   Light Drizzle
9:55 PM 46.4 °F 39.2 °F 44.6 °F 93% 30.09 in 5.6 mi WSW 18.4 mph - N/A   Drizzle
10:25 PM 48.2 °F - 44.6 °F 87% 30.09 in 6.2 mi West 18.4 mph - N/A Rain Light Rain
10:55 PM 48.2 °F - 44.6 °F 87% 30.09 in 6.2 mi WSW 18.4 mph - N/A   Overcast
11:21 PM 48.2 °F - 44.6 °F 87% 30.09 in 3.1 mi WSW 18.4 mph - N/A   Overcast
11:25 PM 48.2 °F - 44.6 °F 87% 30.09 in 4.3 mi WSW 18.4 mph - N/A   Overcast
11:30 PM 48.2 °F - 44.6 °F 87% 30.09 in 5.0 mi WSW 17.3 mph - N/A   Overcast
11:35 PM 48.2 °F - 44.6 °F 87% 30.09 in 3.7 mi WSW 16.1 mph - N/A Rain Light Rain
11:40 PM 48.2 °F - 44.6 °F 87% 30.09 in 6.2 mi WSW 16.1 mph - N/A   Drizzle
11:55 PM 48.2 °F - 44.6 °F 87% 30.09 in 6.2 mi WSW 17.3 mph - N/A   Overcast